Regional Weather Roundup
Issued by NWS

Home | Current Version | Previous Version | Graphics & Text | Print | Product List | Glossary On
Versions: 1 2 3 4 5 6 7 8 9 10 11 12 13 14 15 16 17 18 19 20 21 22 23 24 25 26 27 28 29 30 31 32 33 34 35 36 37 38 39 40 41 42 43 44 45 46 47 48 49 50
763
ASUS43 KOAX 240202
RWRNE

WEATHER ROUNDUP FOR NEBRASKA
NATIONAL WEATHER SERVICE OMAHA NE
900 PM CDT SAT SEP 23 2017

NOTES: SATELLITE DATA IS BEING USED TO AUGMENT CLOUD COVER ABOVE
       12000 FEET.
       "FAIR" INDICATES FEW OR NO CLOUDS BELOW 12,000 FEET WITH NO
       SIGNIFICANT WEATHER AND/OR OBSTRUCTIONS TO VISIBILITY.


NEZ001>004-019>022-054>056-240300-
NEBRASKA PANHANDLE

CITY           SKY/WX    TMP DP  RH WIND       PRES   REMARKS
SCOTTSBLUFF    LGT RAIN  46  43  89 MISG      30.02R
ALLIANCE       LGT RAIN  45  43  93 N9        30.00R
CHADRON        LGT RAIN  46  44  93 N6        30.03R FOG
GORDON         CLOUDY    46  45  95 N9        29.98F
KIMBALL        LGT RAIN  44  44 100 N7        30.00F
SIDNEY         CLOUDY    46  44  93 N14       29.98R
$$

NEZ057>060-069>072-079>082-240300-
SOUTHWEST NEBRASKA

CITY           SKY/WX    TMP DP  RH WIND       PRES   REMARKS
NORTH PLATTE   LGT RAIN  53  52  96 NW9       29.92R
IMPERIAL       LGT RAIN  54  52  93 NE12      29.91F
LEXINGTON      CLOUDY    57  55  93 E5        29.89R
MCCOOK         CLOUDY    60  60 100 NE7       29.87F
OGALLALA       RAIN      54  52  94 N9        29.92F
$$

NEZ005>010-023>029-035>040-094-240300-
NORTH CENTRAL NEBRASKA

CITY           SKY/WX    TMP DP  RH WIND       PRES   REMARKS
VALENTINE      CLOUDY    51  49  92 NW5       29.96S
AINSWORTH      RAIN      51  51 100 N6        29.97R
BROKEN BOW     RAIN      55  55 100 NE5       29.88F
O`NEILL        LGT RAIN  55  55 100 NE5       29.93R
ORD            RAIN      56  53  90 NE5       29.89F
THEDFORD       CLOUDY    52  51  95 N10       29.94F
$$

NEZ041-046>049-061>064-073>077-083>087-240300-
SOUTH CENTRAL NEBRASKA

CITY           SKY/WX    TMP DP  RH WIND       PRES   REMARKS
GRAND ISLAND   CLOUDY    63  58  83 NE6       29.89R
AURORA         CLOUDY    78  60  54 S8        29.88R
HASTINGS       CLOUDY    72  59  63 N7        29.88R
HEBRON         PTCLDY    79  60  52 SE8       29.89R
HOLDREGE       CLOUDY    59  58  94 NE9       29.88S
KEARNEY        CLOUDY    60  59  96 N12       29.89F
YORK           CLOUDY    81  59  47 S10       29.88R
$$

NEZ011>018-030>034-042>045-240300-
NORTHEAST NEBRASKA

CITY           SKY/WX    TMP DP  RH WIND       PRES   REMARKS
NORFOLK        PTCLDY    61  58  90 NW9       29.92R
ALBION         PTCLDY    58  55  91 N6        29.91S
BLAIR          CLEAR     82  63  52 SE14      29.91R
COLUMBUS       PTCLDY    78  63  59 SE8       29.88R
FREMONT        CLEAR     81  62  51 SE12G18   29.89S
TEKAMAH        PTCLDY    76  63  64 SE7       29.88R
WAYNE          MOCLDY    76  69  79 S7        29.88R
$$

NEZ050>053-065>068-078-088>093-240300-
SOUTHEAST NEBRASKA

CITY           SKY/WX    TMP DP  RH WIND       PRES   REMARKS
LINCOLN        CLOUDY    82  63  52 S18       29.89R
OMAHA EPPLEY   MOCLDY    82  64  54 SE14      29.90R
BEATRICE       CLOUDY    82  64  54 SE12      29.90S
FALLS CITY     CLEAR     75  66  73 SE7       29.92S
NEBRASKA CITY  CLEAR     76  64  66 S6        29.93R
PLATTSMOUTH    CLEAR     78  65  64 SE8       29.92R
$$

NEZ044-045-051>053-067-240300-
OMAHA AREA

CITY           SKY/WX    TMP DP  RH WIND       PRES   REMARKS
OMAHA EPPLEY   MOCLDY    82  64  54 SE14      29.90R
BLAIR          CLEAR     82  63  52 SE14      29.91R
FREMONT        CLEAR     81  62  51 SE12G18   29.89S
MILLARD        CLEAR     83  65  54 SE10      29.90S
OFFUTT AFB     CLEAR     75  64  70 E8        29.90S
PLATTSMOUTH    CLEAR     78  65  64 SE8       29.92R
WAHOO          FAIR      78  62  58 SE10      29.89R
$$




USA.gov is the U.S. government's official web portal to all federal, state and local government web resources and services.